Regional Weather Roundup
Issued by NWS

Home | Current Version | Previous Version | Graphics & Text | Print | Product List | Glossary On
Versions: 1 2 3 4 5 6 7 8 9 10 11 12 13 14 15 16 17 18 19 20 21 22 23 24 25 26 27 28 29 30 31 32 33 34 35 36 37 38 39 40 41 42 43 44 45 46 47 48 49 50
000
ASUS43 KIND 202309
RWRIN

WEATHER ROUNDUP FOR INDIANA
NATIONAL WEATHER SERVICE INDIANAPOLIS IN
600 PM EST SAT DEC 20 2014

NOTE: "FAIR" INDICATES FEW OR NO CLOUDS BELOW 12,000 FEET WITH NO
SIGNIFICANT WEATHER AND/OR OBSTRUCTIONS TO VISIBILITY.

* - STATION DOES NOT REPORT WEATHER SUCH AS PRECIPITATION OR FOG.

+ - STATION NOT QUALITY CONTROLLED BY THE NATIONAL WEATHER SERVICE.
    USE DATA WITH CAUTION...ESPECIALLY DEWPOINT AND RELATIVE
    HUMIDITY OBSERVATIONS.

INZ001>003-010>013-019-020-210000-
NORTHWEST INDIANA

CITY           SKY/WX    TMP DP  RH WIND       PRES   REMARKS
GARY /AIRPORT/ CLOUDY    34  23  64 VRB5      30.27S WCI  30
KNOX *+        CLOUDY    32  24  72 S3        30.26S
LA PORTE +     CLOUDY    33  28  81 SW3       30.27R
MICHIGAN CITY+ CLOUDY    32  23  69 CALM      30.27S
MONTICELLO +   CLOUDY    31  27  84 CALM      30.26F
RENSSELAER +   CLOUDY    32  30  93 CALM      30.28R
VALPARAISO     CLOUDY    31  25  78 SW5       30.27R WCI  26

$$

LMZ046-743>745-210000-
SOUTHERN LAKE MICHIGAN

STATION/POSITION TIME  TEMP WIND        PRES
                       AIR  DIR/SP/G
                 (UTC) (F)  (DEG/KT/KT) (MB)

$$

INZ004-005-014>016-021>024-210000-
NORTH CENTRAL INDIANA

CITY           SKY/WX    TMP DP  RH WIND       PRES   REMARKS
ELKHART        CLOUDY    30  27  86 CALM      30.27  FOG
GOSHEN         CLOUDY    31  27  85 CALM      30.26S
LOGANSPORT +   CLOUDY    30  27  86 CALM      30.28S
PERU/GRISSOM   CLOUDY    31  31 100 N1        30.26F
ROCHESTER +    MOCLDY    32  30  93 CALM      30.27S
SOUTH BEND     CLOUDY    33  25  72 CALM      30.26F
WARSAW +       CLOUDY    32  28  86 CALM      30.26S

$$

INZ006>009-017-018-025>027-210000-
NORTHEAST INDIANA

CITY           SKY/WX    TMP DP  RH WIND       PRES   REMARKS
ANGOLA *+      CLOUDY    28  25  86 CALM      30.25S
AUBURN +       CLOUDY    32  27  80 CALM      30.27R
FORT WAYNE     CLOUDY    32  26  78 W3        30.28R
HUNTINGTON +   CLOUDY    31  26  81 W3        30.27S

$$

INZ028-029-035-036-043>045-051>053-210000-
WEST CENTRAL INDIANA

CITY           SKY/WX    TMP DP  RH WIND       PRES   REMARKS
GREENCASTLE +  CLOUDY    32  23  69 CALM      30.27S
LAFAYETTE      CLOUDY    31  25  78 CALM      30.28R
TERRE HAUTE    CLOUDY    32  26  78 SE5       30.28S WCI  27

$$

INZ030>032-037>040-046>048-054>057-064-065-210000-
CENTRAL INDIANA

CITY           SKY/WX    TMP DP  RH WIND       PRES   REMARKS
CP ATTERBURY + CLOUDY    32  27  80 MISG      30.28F
FRANKFORT +    MOCLDY    30  27  88 CALM      30.28S
INDIANAPOLIS   CLOUDY    31  23  72 S3        30.26S
-EAGLE CREEK   CLOUDY    32  23  69 CALM      30.27R
KOKOMO *+      CLOUDY    30  25  80 CALM      30.27S
MARION +       CLOUDY    31  27  85 CALM      30.28S
MT COMFORT *+  MOCLDY    32  19  59 CALM      30.28R
SHELBYVILLE    CLOUDY    33  26  75 CALM      30.28R
ZIONSVILLE +   CLOUDY    32  25  75 CALM      30.27S

$$

INZ033-034-041-042-049-050-058-059-210000-
EAST CENTRAL INDIANA

CITY           SKY/WX    TMP DP  RH WIND       PRES   REMARKS
MUNCIE         CLOUDY    32  24  72 CALM      30.27R

$$

INZ060-061-067>069-081>083-085>088-210000-
SOUTHWEST INDIANA

CITY           SKY/WX    TMP DP  RH WIND       PRES   REMARKS
EVANSVILLE     CLEAR     35  26  69 CALM      30.29S
HUNTINGBURG *+ MOCLDY    34  25  69 CALM      30.29S
WASHINGTON +   CLOUDY    33  25  72 CALM      30.28S

$$

INZ062-063-066-070>080-084-089>092-210000-
SOUTH CENTRAL AND SOUTHEAST INDIANA

CITY           SKY/WX    TMP DP  RH WIND       PRES   REMARKS
BLOOMINGTON    CLOUDY    33  26  75 CALM      30.27S
SEYMOUR +      CLOUDY    34  27  75 N5        30.29S WCI  30

$$



USA.gov is the U.S. government's official web portal to all federal, state and local government web resources and services.